Vorticity
2 4 5 6 -1 -1 10 7 4 4 5 -1 10 5 7 -2 -6 8 18 8 12 11 10 5 5 5 5 4 3 5 4 4 3 4 3 3 2 3 2 2 3 4 6 6 5 4 3 3 3
3 4 4 4 -20 -2 10 -1 -6 3 10 3 4 17 1 -4 -2 -1 8 3 7 8 7 7 4 4 6 5 6 5 4 5 4 4 4 4 3 2 2 2 2 3 3 3 4 4 3 3 3
7 5 1 -5 1 6 -6 23 -2 3 8 5 11 12 5 1 -6 -0 2 5 6 6 6 7 5 4 5 4 4 4 5 5 5 4 5 4 3 4 4 3 3 4 3 3 2 2 4 4 4
7 5 8 -7 6 9 -13 1 14 3 8 6 7 13 8 7 2 3 3 6 5 6 6 6 7 7 4 4 3 5 5 6 6 6 6 7 6 6 6 5 5 5 4 4 3 2 3 4 3
10 7 -6 6 -1 7 3 -6 11 3 12 4 5 4 7 5 0 -1 1 7 6 6 6 6 7 6 6 5 5 5 6 6 7 7 8 8 8 9 6 8 5 4 5 5 4 2 3 5 4
6 1 19 1 2 4 6 -3 19 4 13 5 3 4 5 -4 -2 -0 5 5 5 4 4 4 5 4 4 5 5 6 6 7 8 7 7 6 6 7 8 8 7 6 4 5 4 4 5 6 4
3 -4 14 3 10 5 9 10 15 6 7 7 5 3 -1 -3 -2 8 9 5 5 4 4 4 3 3 4 5 6 6 6 5 4 5 6 6 6 6 6 6 7 7 7 7 4 6 4 4 4
2 3 -3 25 -0 9 7 12 11 2 2 5 5 8 5 5 7 9 8 5 3 4 4 3 4 5 5 6 5 5 5 6 6 6 6 6 7 7 7 7 7 6 6 7 8 8 6 7 8
3 -6 5 17 3 6 11 12 12 5 2 -0 2 1 6 2 8 7 7 4 5 5 2 3 4 5 5 6 6 7 6 6 7 7 7 7 6 6 6 5 5 5 5 5 6 5 6 6 5
-2 -2 3 8 12 9 12 8 9 3 3 4 7 15 12 13 7 5 4 5 5 3 3 4 4 5 6 7 7 7 7 7 7 6 6 5 5 4 4 4 4 4 4 4 4 4 4 4 4
5 12 3 2 11 10 10 4 4 7 7 11 11 10 13 8 3 6 6 4 4 3 4 4 5 5 6 7 7 7 7 6 6 5 5 4 4 4 4 5 5 6 6 6 6 6 5 5 5
9 7 6 11 7 8 6 5 3 1 2 15 10 2 8 12 5 3 4 4 4 4 4 5 5 5 6 7 7 6 5 5 4 4 4 4 5 6 8 9 9 9 10 10 10 10 10 9 9
14 2 6 5 4 9 3 4 1 4 5 14 10 7 3 1 4 4 6 4 3 4 5 4 5 6 7 6 5 6 4 3 3 4 4 6 8 8 9 10 11 11 12 12 13 13 15 15 14
13 9 11 -1 6 -4 5 1 0 8 8 9 9 7 7 6 5 7 4 3 5 5 4 5 6 7 6 5 6 4 3 3 3 5 6 7 9 10 10 10 9 8 7 7 7 7 7 8 9
13 4 8 14 15 8 4 7 7 5 10 5 5 3 5 4 6 4 3 5 4 5 4 5 7 6 6 5 4 3 3 4 5 7 9 10 10 8 8 7 7 8 8 9 10 10 9 9 9
9 12 3 17 12 16 6 17 10 16 4 9 2 5 4 3 4 4 4 5 4 4 4 6 7 5 5 4 4 3 3 6 8 11 11 9 9 7 7 7 8 8 9 9 11 12 13 13 12
3 19 2 5 6 5 5 10 17 12 7 11 7 5 6 5 5 5 4 4 4 5 9 8 6 5 4 4 4 4 8 8 11 10 8 7 7 7 7 8 8 9 11 12 12 12 12 12 11
19 3 11 8 5 6 10 1 21 7 9 8 6 7 7 4 7 5 5 7 8 8 8 6 3 4 4 4 5 8 10 11 9 7 7 6 6 7 10 12 13 13 11 10 10 12 12 13 13
3 -2 3 2 12 4 5 7 3 2 7 7 5 3 3 4 1 3 5 6 6 6 5 5 5 4 4 5 7 10 10 9 7 7 7 8 9 10 11 11 12 8 8 10 14 12 12 13 12
4 -5 2 6 3 2 4 7 8 5 5 5 5 5 6 6 7 6 8 9 8 5 5 4 3 5 6 9 13 13 9 7 5 5 6 7 9 10 11 10 8 6 11 17 19 14 12 11 11
2 3 5 1 10 7 8 20 10 6 6 7 7 7 8 10 10 9 7 5 4 4 5 6 8 8 10 14 12 8 6 4 3 3 8 10 11 10 10 8 7 10 17 16 14 11 10 10 9
12 11 8 4 6 6 7 4 15 18 10 8 9 10 10 9 9 8 8 8 9 12 15 16 16 14 13 9 8 6 3 1 3 4 12 11 10 10 10 7 8 14 16 16 15 12 10 9 9
15 7 6 7 7 7 12 9 27 10 3 11 9 5 8 10 10 12 14 13 10 11 12 13 13 12 13 10 7 2 3 3 3 12 11 8 10 10 12 8 9 7 6 13 20 19 16 15 14
18 7 6 6 9 17 11 -5 27 12 15 12 8 8 8 8 9 10 9 10 10 10 11 11 13 10 7 5 3 2 1 0 7 12 10 9 9 11 12 9 6 5 -0 1 3 9 11 11 10
4 9 8 11 11 0 9 16 -24 -8 13 9 4 7 7 8 8 8 9 11 12 13 14 11 9 5 4 4 4 2 -1 6 13 12 11 11 8 12 10 9 7 9 4 -1 -2 4 4 5 5
3 1 6 9 6 -1 15 14 9 21 15 6 5 5 7 11 10 8 7 10 11 9 8 6 2 1 5 7 2 -1 14 16 14 14 13 10 7 11 12 11 7 7 6 8 7 7 5 5 7
19 7 10 -1 10 11 7 18 1 1 7 5 2 6 6 7 11 10 13 11 10 9 7 8 9 6 3 5 11 15 10 9 11 10 10 10 9 10 10 10 10 7 6 6 6 7 7 8 7
-6 13 11 11 4 8 15 19 -6 2 20 9 9 6 4 14 16 16 12 8 6 4 3 2 2 3 7 10 10 10 10 9 9 8 8 8 8 10 10 8 9 9 8 8 8 7 7 7 7
8 3 0 1 0 8 4 21 8 10 19 8 6 8 10 8 4 2 1 4 5 2 0 -0 2 5 8 11 10 10 9 9 8 7 7 8 9 10 10 9 10 9 8 8 8 8 8 8 7
7 4 4 -6 21 1 2 14 -10 -9 5 7 6 -1 18 1 -7 -10 -9 0 11 14 10 9 8 10 11 12 9 6 4 3 2 3 4 5 5 5 5 7 10 10 10 10 10 8 7 7 8
Height
3138 3144 3149 3152 3159 3155 3155 3158 3160 3162 3165 3165 3167 3169 3172 3173 3175 3179 3176 3177 3178 3179 3180 3181 3181 3181 3182 3182 3182 3182 3182 3182 3182 3182 3181 3181 3180 3179 3179 3178 3178 3177 3176 3175 3174 3174 3173 3172 3172
3135 3141 3146 3148 3150 3149 3153 3156 3160 3162 3164 3164 3166 3168 3171 3174 3175 3176 3177 3178 3179 3180 3180 3180 3181 3181 3182 3182 3182 3182 3182 3181 3181 3181 3180 3180 3179 3179 3178 3178 3177 3176 3175 3174 3173 3173 3172 3171 3170
3132 3137 3144 3145 3144 3146 3151 3154 3159 3161 3163 3163 3166 3168 3170 3174 3175 3176 3177 3179 3180 3180 3180 3180 3180 3181 3181 3181 3181 3181 3181 3180 3180 3179 3179 3178 3178 3178 3177 3176 3176 3175 3174 3173 3172 3172 3171 3170 3169
3129 3135 3139 3138 3139 3145 3149 3153 3156 3158 3161 3163 3165 3167 3170 3173 3175 3176 3177 3179 3180 3180 3180 3180 3180 3180 3181 3181 3181 3180 3180 3179 3179 3178 3178 3177 3176 3176 3175 3174 3173 3173 3172 3171 3170 3170 3169 3168 3168
3125 3130 3134 3132 3137 3144 3148 3151 3154 3157 3160 3162 3164 3166 3170 3173 3175 3175 3177 3179 3180 3180 3180 3180 3180 3180 3180 3179 3179 3179 3178 3178 3177 3177 3176 3176 3175 3174 3174 3172 3171 3170 3170 3169 3168 3167 3167 3166 3165
3121 3125 3127 3128 3136 3142 3145 3150 3152 3156 3159 3161 3164 3166 3170 3172 3174 3175 3176 3179 3179 3179 3179 3179 3179 3179 3179 3178 3178 3177 3176 3176 3175 3175 3174 3173 3172 3172 3171 3169 3168 3167 3167 3166 3165 3164 3164 3163 3162
3115 3119 3124 3130 3136 3140 3143 3148 3151 3154 3157 3161 3164 3166 3169 3171 3172 3174 3176 3178 3178 3178 3178 3178 3178 3177 3177 3176 3175 3175 3174 3173 3173 3172 3171 3171 3170 3169 3168 3167 3166 3164 3163 3163 3162 3161 3161 3159 3158
3114 3120 3125 3130 3134 3138 3140 3145 3149 3152 3156 3159 3162 3164 3168 3170 3172 3173 3175 3177 3177 3178 3178 3178 3177 3176 3175 3174 3173 3173 3172 3171 3170 3169 3168 3168 3167 3166 3165 3164 3162 3161 3160 3159 3158 3157 3156 3155 3153
3111 3118 3123 3129 3133 3135 3139 3143 3147 3151 3155 3158 3161 3163 3167 3169 3171 3173 3174 3175 3176 3176 3176 3176 3175 3174 3173 3172 3172 3171 3170 3169 3168 3167 3166 3165 3164 3162 3161 3160 3158 3157 3156 3155 3154 3152 3151 3150 3148
3111 3116 3122 3128 3132 3135 3139 3143 3147 3151 3154 3157 3159 3162 3165 3167 3169 3171 3173 3173 3174 3174 3174 3174 3173 3172 3172 3171 3170 3169 3167 3166 3166 3164 3163 3162 3160 3159 3157 3155 3153 3152 3150 3149 3148 3147 3145 3144 3143
3111 3116 3121 3127 3131 3135 3139 3143 3146 3151 3154 3157 3160 3162 3163 3165 3168 3170 3170 3171 3172 3172 3172 3171 3171 3170 3169 3168 3167 3167 3165 3164 3163 3161 3160 3159 3157 3155 3152 3150 3148 3146 3144 3143 3141 3140 3138 3137 3135
3111 3117 3121 3126 3130 3135 3139 3143 3146 3150 3153 3155 3157 3160 3162 3164 3166 3168 3169 3169 3170 3170 3169 3169 3168 3166 3166 3165 3164 3163 3162 3161 3159 3158 3156 3155 3153 3151 3148 3145 3142 3140 3137 3135 3133 3132 3130 3129 3127
3111 3117 3121 3126 3131 3135 3139 3142 3145 3148 3152 3154 3156 3159 3161 3163 3165 3166 3167 3167 3167 3168 3167 3166 3165 3164 3163 3162 3161 3160 3158 3157 3156 3154 3152 3150 3148 3145 3142 3139 3136 3133 3131 3128 3126 3124 3122 3121 3119
3111 3118 3122 3126 3131 3136 3138 3141 3144 3148 3150 3153 3155 3157 3159 3162 3163 3164 3165 3165 3166 3165 3163 3162 3162 3161 3160 3159 3158 3156 3155 3154 3152 3149 3146 3144 3141 3139 3136 3134 3131 3128 3124 3122 3120 3117 3115 3113 3111
3113 3119 3122 3126 3131 3135 3138 3141 3143 3146 3149 3152 3154 3156 3158 3159 3161 3162 3162 3163 3161 3161 3160 3159 3158 3157 3156 3155 3154 3153 3151 3149 3147 3144 3141 3139 3136 3133 3131 3128 3125 3122 3119 3116 3113 3110 3107 3105 3103
3114 3120 3122 3126 3131 3134 3138 3140 3141 3143 3147 3149 3152 3154 3155 3156 3158 3159 3158 3159 3158 3158 3157 3156 3155 3154 3153 3152 3151 3149 3147 3145 3143 3140 3137 3134 3131 3129 3126 3123 3120 3116 3113 3109 3106 3102 3100 3097 3096
3115 3119 3123 3128 3132 3134 3137 3138 3139 3142 3145 3147 3149 3151 3153 3154 3155 3155 3154 3154 3154 3154 3154 3152 3151 3150 3149 3148 3146 3145 3143 3140 3137 3135 3133 3131 3128 3124 3121 3117 3113 3110 3106 3102 3099 3096 3094 3091 3090
3114 3119 3123 3128 3133 3134 3135 3137 3138 3140 3143 3145 3147 3149 3150 3151 3152 3151 3150 3151 3151 3151 3150 3148 3147 3146 3145 3144 3142 3140 3138 3136 3134 3131 3129 3126 3122 3118 3115 3111 3107 3104 3101 3097 3094 3091 3087 3085 3085
3117 3121 3125 3128 3131 3133 3134 3136 3137 3139 3141 3143 3145 3146 3146 3147 3148 3147 3147 3147 3147 3147 3146 3145 3143 3142 3141 3139 3137 3135 3134 3131 3129 3127 3125 3122 3118 3114 3110 3106 3102 3099 3095 3091 3088 3086 3083 3080 3081
3118 3123 3125 3128 3130 3132 3132 3134 3135 3136 3138 3140 3141 3142 3142 3142 3143 3142 3142 3142 3142 3142 3141 3140 3139 3138 3136 3135 3133 3132 3130 3128 3125 3122 3119 3116 3113 3109 3105 3101 3098 3094 3090 3085 3083 3081 3079 3077 3077
3119 3122 3124 3128 3129 3131 3131 3131 3132 3133 3134 3136 3137 3138 3138 3138 3138 3138 3138 3138 3138 3137 3137 3136 3135 3133 3131 3130 3129 3127 3125 3123 3121 3117 3114 3110 3107 3103 3100 3097 3094 3090 3086 3082 3079 3077 3076 3075 3073
3119 3122 3124 3127 3129 3131 3131 3130 3129 3130 3130 3131 3132 3133 3133 3133 3133 3133 3134 3134 3134 3133 3132 3131 3129 3128 3126 3125 3124 3122 3121 3120 3117 3113 3109 3106 3102 3100 3096 3093 3091 3087 3083 3079 3077 3074 3073 3071 3070
3120 3122 3125 3127 3129 3130 3130 3131 3124 3127 3127 3128 3129 3129 3129 3129 3129 3129 3130 3129 3129 3128 3127 3126 3125 3124 3123 3122 3120 3119 3117 3114 3112 3107 3104 3101 3098 3095 3092 3090 3088 3086 3082 3078 3075 3072 3070 3068 3068
3121 3123 3125 3127 3128 3129 3127 3130 3122 3123 3124 3125 3125 3125 3126 3126 3126 3126 3126 3125 3124 3123 3122 3121 3120 3119 3118 3117 3115 3114 3112 3110 3107 3103 3099 3096 3093 3090 3087 3086 3084 3083 3081 3078 3075 3071 3069 3068 3067
3122 3124 3126 3131 3132 3129 3126 3126 3119 3120 3121 3122 3122 3122 3122 3122 3121 3121 3121 3120 3119 3118 3117 3116 3116 3115 3114 3113 3112 3110 3107 3104 3101 3098 3094 3092 3089 3086 3084 3082 3081 3079 3078 3075 3073 3070 3069 3067 3065
3122 3124 3125 3133 3133 3127 3125 3119 3115 3116 3117 3118 3119 3119 3119 3119 3118 3118 3117 3116 3115 3114 3113 3113 3113 3113 3110 3109 3107 3104 3100 3098 3095 3092 3090 3087 3084 3082 3079 3078 3077 3075 3073 3071 3069 3067 3066 3064 3062
3122 3124 3126 3125 3127 3128 3121 3116 3115 3114 3114 3115 3116 3116 3116 3116 3116 3114 3113 3113 3112 3111 3110 3109 3109 3108 3106 3104 3101 3099 3095 3093 3090 3088 3085 3082 3080 3078 3076 3074 3072 3070 3068 3066 3064 3063 3062 3060 3057
3121 3123 3125 3125 3129 3130 3117 3113 3109 3111 3112 3113 3113 3113 3112 3112 3111 3111 3111 3111 3110 3108 3106 3105 3104 3103 3100 3098 3095 3093 3090 3088 3085 3083 3080 3078 3076 3074 3072 3069 3067 3065 3063 3061 3060 3058 3056 3054 3052
3120 3120 3122 3124 3124 3124 3125 3111 3110 3110 3110 3110 3110 3110 3110 3109 3109 3109 3109 3108 3106 3104 3102 3101 3100 3097 3095 3093 3090 3088 3086 3084 3081 3079 3076 3074 3072 3069 3067 3064 3062 3060 3058 3056 3055 3053 3051 3049 3047
3117 3117 3118 3120 3120 3119 3118 3107 3107 3107 3107 3107 3108 3107 3106 3106 3105 3105 3103 3102 3100 3098 3097 3095 3093 3091 3089 3088 3086 3084 3081 3079 3077 3074 3072 3069 3067 3064 3062 3059 3056 3054 3052 3050 3049 3047 3045 3043 3041